Theta_e
315 314 317 323 325 324 325 326 326 325 325 324 323 322 324 327 327 324 321 320 318 315 315 315 316 316 316 316 315 316 316 317 318 320 323 324 324 325 325 325 325 325 326 326 325 325 324 325 319 312 314 314 314 315 316 319 320 319 325 328 325 329 329 328 325 318 320 322 316 316 317 317 317 317 317 319 321 321 321 323 326 327 324 323 324 320 325 334
317 315 315 319 323 324 324 325 326 325 325 324 323 323 325 326 327 325 321 319 318 316 315 315 316 316 317 317 316 317 316 317 318 319 322 323 324 324 324 324 324 324 325 326 326 326 324 325 321 314 313 314 314 315 316 319 318 321 328 326 327 333 326 320 319 315 317 318 316 316 317 317 317 316 317 321 322 323 327 329 329 328 328 327 325 322 328 334
319 318 315 316 320 323 324 324 326 325 324 324 323 323 325 326 327 326 322 320 318 317 316 316 316 317 318 318 317 318 318 318 320 320 321 322 324 324 325 324 324 323 324 326 327 326 325 325 322 314 313 314 314 315 317 319 319 319 323 325 331 330 320 315 315 315 318 317 316 316 317 317 316 316 316 320 320 321 330 331 328 328 329 328 325 325 331 334
320 320 316 313 316 321 324 324 326 326 324 324 323 323 325 326 327 327 325 322 319 317 317 317 316 317 318 319 319 320 320 321 321 320 320 321 322 323 324 324 324 323 324 325 326 326 325 325 324 315 312 314 313 314 316 318 319 318 320 327 329 320 316 317 315 316 317 317 317 316 316 316 315 316 316 318 320 320 322 323 323 325 326 327 326 327 330 333
318 320 317 314 314 318 323 324 325 325 323 322 323 323 324 325 326 326 326 325 322 318 317 318 317 317 318 320 321 321 322 323 323 320 320 321 321 322 323 324 324 323 323 324 325 326 325 325 325 316 312 314 313 314 316 317 318 317 318 323 321 315 316 317 315 317 316 316 317 315 315 317 315 315 316 318 321 320 318 317 316 318 320 323 325 327 330 332
316 319 319 316 313 315 321 324 325 325 323 322 322 323 324 324 325 326 326 326 324 320 317 318 318 317 318 318 321 322 322 323 324 322 320 320 321 322 323 323 324 324 323 324 324 325 325 326 323 315 312 313 313 314 315 316 317 318 318 317 316 315 316 316 315 317 316 316 316 314 316 316 315 314 315 317 318 317 315 315 316 317 318 321 324 327 329 331
313 318 320 318 315 316 320 323 324 324 323 322 322 322 323 324 324 325 326 326 326 323 319 318 319 318 318 319 320 323 322 322 323 323 322 320 321 321 321 322 324 324 323 324 324 324 325 326 322 314 313 313 312 313 313 316 316 318 319 316 316 316 316 316 316 316 316 317 316 316 316 315 315 315 315 315 315 315 315 315 316 318 320 322 325 325 326 328
312 316 319 319 319 319 320 323 324 324 323 323 322 322 323 324 324 325 326 326 327 325 322 320 320 319 319 320 322 324 323 322 321 322 323 323 322 321 321 322 323 324 324 324 325 325 325 326 322 314 313 313 313 313 313 315 315 317 319 316 315 316 316 315 315 316 316 316 316 316 315 315 315 315 314 315 315 315 316 316 317 320 322 323 324 323 325 325
311 314 318 319 320 320 318 321 324 324 323 322 322 322 323 324 324 325 326 326 326 326 324 322 321 320 320 321 322 324 323 321 321 322 323 324 324 323 323 323 323 324 324 324 324 325 325 325 324 317 313 313 313 312 313 315 316 316 317 316 315 315 315 315 315 316 316 316 316 315 314 314 314 314 315 315 315 316 317 317 317 319 322 323 323 322 322 323
310 312 316 319 320 321 318 320 323 324 323 322 321 320 321 323 324 325 326 326 326 326 325 324 322 321 321 322 323 324 323 321 321 321 322 323 324 325 324 323 323 324 324 324 323 324 325 325 325 319 313 313 313 312 312 314 317 316 316 315 314 314 314 314 314 314 315 315 315 316 315 313 313 314 316 315 315 316 317 318 318 319 320 321 322 321 320 320
310 311 315 319 320 321 319 319 322 324 323 321 320 319 320 322 323 324 324 325 326 325 325 325 323 322 322 322 323 323 322 321 321 321 322 323 324 325 325 324 324 324 324 324 323 324 324 324 325 320 313 313 313 312 313 313 315 315 315 315 313 313 314 313 314 314 315 315 314 315 314 313 314 314 316 315 315 316 316 318 319 319 319 319 320 320 320 319
309 311 313 318 320 322 321 319 322 324 323 321 320 319 319 321 323 323 323 325 325 325 324 325 324 323 323 323 324 323 322 322 322 322 322 323 324 324 325 325 325 326 325 324 323 323 324 324 324 320 314 312 312 312 313 313 314 314 315 316 314 313 314 314 313 314 314 314 314 314 314 315 315 315 316 314 315 318 318 318 319 319 319 319 320 319 319 318
307 310 312 316 319 321 321 320 322 323 322 321 321 320 320 321 323 323 323 324 325 324 323 323 324 324 324 324 324 323 323 323 323 322 322 322 323 324 325 326 326 326 326 323 323 323 324 324 324 322 317 312 311 312 313 313 313 314 314 316 316 314 316 315 313 314 314 314 314 314 316 319 318 315 314 314 316 321 320 319 320 320 319 319 320 319 318 317
306 309 312 315 319 320 321 321 322 323 322 321 320 320 320 321 322 323 324 325 324 323 321 322 323 324 324 323 323 323 323 323 323 323 323 323 323 324 325 326 326 326 326 324 322 323 323 324 324 321 316 311 311 312 312 312 313 315 313 315 318 317 318 317 312 314 314 313 314 314 317 322 319 314 314 313 316 321 321 320 321 321 321 321 320 319 317 316
305 308 312 315 318 320 321 321 322 322 322 321 320 320 321 322 323 323 324 324 323 322 322 322 323 324 324 322 322 323 323 323 323 323 323 323 323 324 325 326 326 325 325 324 323 324 324 323 319 315 313 313 312 311 312 314 314 315 315 317 316 316 319 317 312 313 315 314 313 313 317 321 318 314 313 313 316 319 320 321 322 322 322 322 321 319 316 316
306 308 312 314 316 320 320 320 322 322 321 321 320 321 322 323 325 324 324 323 322 322 322 323 323 323 323 320 320 322 323 323 322 322 322 322 323 324 325 324 323 323 324 323 323 323 320 317 314 312 313 313 311 311 313 316 316 314 318 321 317 316 317 317 313 313 313 313 312 313 316 319 316 312 312 313 314 315 316 319 322 323 324 322 320 317 316 316
306 308 312 314 316 319 319 319 322 322 321 321 321 322 323 323 324 324 323 322 322 321 321 323 322 322 321 317 318 321 323 322 321 321 321 320 319 320 323 321 318 318 319 319 319 318 316 313 312 312 312 311 311 312 313 315 317 315 318 323 320 317 316 317 316 313 312 313 314 313 315 318 315 310 311 313 313 313 313 315 318 320 321 320 319 318 317 316
307 308 312 314 316 320 319 318 321 322 321 321 321 323 323 323 323 323 322 321 321 321 321 320 320 322 320 315 316 320 322 322 321 321 320 318 316 316 318 317 315 315 314 314 314 315 315 313 312 311 312 311 311 312 313 316 320 319 319 321 318 316 315 316 317 314 313 314 314 314 314 317 317 312 311 312 312 313 313 313 314 315 316 317 317 318 318 317
307 308 312 314 316 320 320 318 321 322 321 321 321 323 323 323 322 321 321 321 319 320 319 318 319 321 320 316 316 319 322 323 320 320 321 319 316 314 314 314 314 312 313 316 316 314 314 313 311 311 311 312 311 311 315 322 324 322 322 323 320 317 316 318 318 315 314 315 315 315 315 315 317 315 312 312 312 312 313 313 313 314 315 314 315 316 317 317
307 309 313 314 315 321 321 319 321 321 321 322 322 322 321 319 318 317 318 320 319 318 317 318 319 317 315 316 316 318 320 321 319 319 320 318 315 313 312 313 312 313 315 318 317 313 312 313 311 311 311 312 312 312 317 322 321 319 321 324 320 318 317 318 319 314 312 315 315 314 315 314 316 317 312 310 312 311 311 311 311 313 314 314 314 314 315 316
307 309 313 314 315 320 321 320 321 321 322 322 322 322 319 317 317 316 317 318 318 317 315 318 319 314 314 316 317 318 317 316 317 319 319 316 313 312 312 311 312 315 315 314 315 313 312 313 312 311 312 312 312 314 316 316 315 316 319 321 319 318 317 315 316 315 311 314 316 313 314 314 316 316 311 309 311 310 311 311 311 312 313 314 315 314 315 315
308 310 314 314 315 320 321 321 321 321 322 322 321 321 319 319 318 318 318 316 313 313 315 318 316 313 314 314 315 317 316 314 316 318 317 314 313 312 311 311 312 315 314 313 315 315 313 313 312 310 309 310 312 314 315 313 313 315 316 319 321 319 317 313 313 315 313 314 317 315 314 315 315 315 311 308 309 311 312 312 312 313 313 313 314 315 315 315
308 311 314 314 317 321 320 320 321 321 322 321 321 320 319 318 317 318 318 314 311 311 314 317 313 311 313 313 313 314 315 315 315 316 315 313 312 312 311 311 311 312 313 313 315 315 314 313 312 309 308 310 312 312 313 312 312 315 316 318 321 318 317 316 314 314 314 313 315 317 317 316 315 315 314 310 310 312 313 313 313 313 313 313 314 315 315 314
309 312 315 315 319 321 319 320 321 321 322 320 320 319 318 317 317 319 316 312 311 310 313 315 311 311 313 312 313 314 315 316 315 315 315 313 312 312 312 311 311 312 313 313 313 313 314 313 311 310 309 310 311 311 312 312 312 315 317 318 319 318 318 318 316 314 314 312 314 316 318 320 318 316 316 314 311 311 311 313 313 312 313 313 313 314 314 315
310 313 314 316 320 321 319 321 321 320 320 319 318 318 317 316 317 319 314 312 312 309 311 314 310 311 313 312 312 313 314 315 315 315 314 313 312 312 312 311 311 311 312 312 312 312 313 312 310 311 311 310 310 311 312 312 313 314 317 319 318 318 318 318 317 315 314 314 315 313 315 326 327 318 314 313 312 312 311 310 312 313 313 312 313 313 314 314
312 315 315 317 321 320 319 320 320 320 319 318 318 317 316 316 316 318 314 313 313 309 310 314 311 311 312 312 312 312 313 314 314 315 314 312 312 311 311 311 311 312 312 312 312 313 313 311 310 311 312 312 312 312 312 313 312 313 318 319 316 316 319 319 317 317 318 316 315 313 314 324 325 318 315 313 312 314 313 310 310 312 313 312 313 314 314 314
316 316 315 319 321 320 319 319 319 319 318 317 318 317 316 315 316 316 314 315 314 310 310 312 311 312 312 312 312 312 314 314 313 314 314 312 312 312 312 311 311 312 311 312 313 313 312 311 312 312 312 313 312 312 313 313 313 317 319 317 316 315 318 318 316 320 323 316 315 316 317 317 317 318 317 312 312 314 313 313 311 310 312 313 313 314 314 314
317 315 316 320 321 320 319 319 318 319 318 317 317 316 316 315 316 315 315 317 315 310 310 311 310 311 312 312 312 312 314 314 313 314 313 312 312 311 311 311 311 312 311 313 314 314 312 313 313 313 313 312 310 313 315 312 313 320 319 315 315 315 317 317 316 323 322 315 316 318 315 313 319 324 318 312 313 314 314 315 312 310 311 313 313 314 314 315
315 315 318 320 320 320 319 319 319 318 318 317 316 316 315 315 315 314 315 316 312 309 310 310 310 311 312 312 312 311 312 313 314 314 312 312 312 311 311 311 311 312 312 312 314 315 313 312 312 313 313 312 313 317 318 314 314 317 316 317 317 317 318 317 318 324 318 313 319 320 313 312 321 329 320 311 314 317 316 314 311 310 312 313 314 314 314 315
315 315 318 320 320 319 318 318 318 317 317 316 316 315 314 314 314 315 317 316 311 310 310 309 311 312 312 313 313 311 311 312 313 312 312 312 312 311 311 311 311 312 313 312 314 316 313 310 311 313 312 312 315 317 315 316 314 313 317 319 318 320 324 326 329 327 315 316 326 324 316 311 316 326 322 314 316 318 316 315 312 309 311 313 314 314 314 315
316 317 318 319 319 318 317 317 316 317 316 315 315 314 313 313 314 315 317 314 311 310 309 309 311 312 312 313 314 313 311 311 311 312 312 312 312 311 310 312 312 313 314 313 314 316 313 312 313 313 311 310 315 316 313 313 312 315 323 321 316 323 328 328 329 322 315 321 326 320 315 312 314 322 322 316 317 317 314 317 317 311 310 313 313 314 314 314
317 318 318 318 318 317 317 316 316 317 316 315 314 312 312 314 315 315 314 312 312 310 309 310 311 311 312 312 312 312 313 312 311 312 312 312 312 311 311 312 312 314 314 313 315 314 314 318 316 313 311 310 316 319 314 313 314 317 322 318 316 322 320 320 322 319 319 320 316 313 313 313 316 319 318 318 317 315 311 311 313 310 310 313 313 314 315 315
318 319 319 318 317 317 317 316 315 316 315 314 313 311 313 316 316 314 311 311 312 310 310 311 311 311 311 310 311 311 312 312 311 312 312 312 312 311 312 313 312 317 316 313 314 313 316 320 317 315 314 310 314 317 315 317 316 314 316 315 320 322 316 315 318 316 319 318 313 310 312 316 318 316 316 318 315 311 308 309 311 310 311 313 313 314 315 314
318 319 317 317 317 316 316 316 315 315 314 313 312 312 314 316 316 313 311 311 311 310 310 311 311 311 311 311 312 311 312 312 311 311 312 312 312 311 313 313 312 317 317 314 314 313 316 317 315 315 314 311 313 314 316 321 317 315 317 316 321 325 321 318 319 320 321 319 314 310 313 320 320 315 314 311 308 308 309 311 312 311 311 313 314 315 315 315
318 317 316 316 316 316 315 315 315 315 313 312 312 312 315 316 314 312 312 311 310 310 311 311 311 312 311 312 312 311 313 313 311 312 312 312 312 311 312 311 311 314 315 313 314 314 315 315 314 315 311 310 313 312 313 318 317 317 317 317 319 322 326 322 318 323 324 319 315 312 317 324 318 312 311 307 308 311 311 312 312 312 312 313 315 315 315 315
316 315 315 315 315 315 314 314 314 314 312 311 312 313 314 315 313 312 311 310 310 310 311 311 311 312 312 312 312 312 312 312 312 312 312 312 312 312 312 311 311 312 313 313 314 315 315 315 315 315 311 310 312 311 311 313 316 316 314 318 319 316 323 322 313 316 319 316 317 314 316 321 315 313 314 310 312 314 312 312 311 312 313 313 315 315 314 315
314 313 314 315 314 314 313 313 314 313 311 311 313 313 314 313 312 312 310 309 310 311 311 312 312 311 311 312 313 313 313 313 312 312 313 312 312 312 311 312 311 311 312 313 313 315 317 316 316 315 313 312 310 310 310 309 313 317 315 316 316 312 319 322 314 317 317 316 321 315 313 319 315 317 319 312 315 318 315 312 310 311 313 313 314 314 314 315
313 313 313 313 313 313 312 313 313 312 311 311 312 314 314 312 310 310 310 309 310 311 312 313 312 311 311 312 313 313 313 313 312 312 313 312 314 313 311 311 311 310 312 312 313 315 317 318 316 313 314 315 313 313 313 310 310 315 315 313 316 316 318 317 314 318 315 314 321 316 312 318 316 318 322 315 316 320 314 313 313 312 312 312 313 314 314 314
312 312 312 312 312 312 312 313 313 312 311 312 312 314 316 314 310 309 309 310 311 312 312 313 312 311 311 312 312 312 312 312 311 312 313 312 314 314 310 312 312 310 310 311 314 316 316 319 318 313 312 314 316 316 316 315 312 312 312 310 316 321 320 317 316 318 316 315 320 316 312 319 319 317 321 318 318 317 312 315 316 312 311 312 313 314 313 314
312 312 311 311 312 312 312 313 313 312 312 312 311 313 316 314 310 308 309 311 311 312 313 312 312 312 312 312 312 312 312 313 311 312 313 312 312 312 311 312 312 311 309 310 314 315 314 317 318 315 312 313 316 316 315 317 314 314 314 313 314 315 316 318 316 316 319 320 321 316 314 326 326 315 317 318 317 314 311 314 314 309 310 314 313 314 314 314
312 312 311 311 311 312 312 312 313 313 312 311 310 312 315 312 309 309 310 311 311 311 312 312 312 312 312 312 312 312 313 314 311 311 314 312 311 313 312 310 312 311 310 311 313 315 314 315 317 316 315 315 317 315 312 314 314 314 315 314 316 315 316 317 314 314 317 317 321 319 317 328 326 313 314 317 313 309 307 308 310 308 310 313 314 314 313 313
311 311 311 312 311 311 312 313 313 312 312 311 310 312 313 311 309 309 310 310 312 312 311 311 311 311 312 312 312 312 313 313 311 312 314 313 312 315 313 310 311 311 311 313 314 315 316 319 320 317 316 317 318 313 308 309 313 314 312 314 317 317 318 318 317 317 315 311 316 317 316 326 326 313 311 313 308 305 305 306 307 307 310 312 313 314 313 313
311 311 312 312 311 311 312 314 314 312 311 311 310 311 312 310 309 310 310 311 312 312 311 311 311 311 312 312 312 313 312 312 312 313 315 314 313 313 312 310 312 311 311 315 315 313 315 318 319 316 315 317 318 315 309 308 312 314 314 315 315 316 319 324 325 321 316 313 314 313 313 326 332 313 304 303 303 304 305 306 306 307 309 311 312 313 313 313
311 311 311 312 311 312 313 313 313 312 311 310 310 313 312 310 310 310 310 311 312 312 311 311 311 311 312 312 312 313 312 313 313 313 315 315 312 311 310 310 312 312 311 314 314 312 315 317 317 316 316 316 318 317 313 311 312 316 317 315 316 318 318 319 318 314 314 318 318 315 317 325 329 317 306 304 305 306 306 306 307 308 309 310 311 313 313 312
312 312 311 311 311 311 312 312 312 312 311 310 312 314 314 312 311 310 310 312 313 313 312 311 312 311 312 313 312 312 313 314 315 314 316 316 312 309 309 309 312 312 312 313 311 313 320 320 316 316 316 315 315 315 314 315 314 315 316 314 316 319 316 315 317 314 315 318 315 315 320 322 321 318 314 312 311 311 310 307 307 308 309 311 311 312 313 313
312 312 311 311 311 312 311 311 311 311 311 311 312 314 314 314 313 310 310 313 313 314 314 313 312 312 312 313 312 312 313 315 316 315 315 316 314 311 308 309 311 311 312 313 310 315 323 320 315 315 315 314 315 316 317 318 315 315 317 316 317 317 315 318 320 318 319 319 315 317 319 317 316 317 317 318 317 318 315 307 306 309 309 310 312 312 313 313
311 312 312 312 312 311 311 311 311 310 310 311 313 314 314 315 315 312 312 313 312 313 314 313 312 313 313 313 313 313 313 315 316 316 315 316 315 311 308 309 310 310 312 312 310 316 322 318 314 315 314 314 315 316 317 318 315 314 317 317 318 317 316 318 317 316 319 318 315 318 318 314 314 316 319 322 321 320 314 306 306 309 309 310 311 312 313 313
310 310 311 311 312 312 312 312 311 310 310 312 313 314 314 315 314 313 314 314 312 313 315 313 313 314 313 313 313 313 314 315 315 314 314 316 315 311 310 310 310 310 312 312 311 315 319 317 315 314 314 315 316 314 314 316 314 314 315 315 316 316 316 316 315 315 317 315 313 315 316 315 315 316 320 321 316 313 310 307 308 309 309 310 311 312 313 313
308 309 309 310 311 312 311 311 311 310 311 313 314 314 314 314 314 315 316 315 313 313 314 313 313 313 313 313 313 313 313 314 314 314 314 314 314 313 312 312 310 308 310 313 312 311 315 318 317 315 314 316 318 316 314 315 314 314 315 314 314 315 315 315 315 314 315 315 314 314 315 315 315 316 318 314 309 307 307 308 310 309 309 311 311 312 313 313
307 309 309 309 310 310 310 311 310 310 311 312 313 313 313 314 315 316 317 315 314 315 314 313 313 313 313 313 313 313 313 314 314 314 313 313 313 313 313 314 313 310 311 313 312 309 312 316 316 315 313 314 317 317 314 314 315 315 316 315 314 315 314 314 314 314 314 314 314 314 315 315 313 311 311 310 308 307 306 308 310 310 310 311 311 312 313 312
306 307 308 310 310 310 310 310 310 310 311 312 313 313 313 314 315 317 317 314 313 316 316 314 313 313 312 313 314 313 313 313 314 312 311 312 312 313 314 313 312 312 314 315 313 313 315 315 314 316 315 312 314 316 314 313 313 314 316 316 315 314 314 313 314 314 314 314 314 315 314 314 312 309 309 309 307 306 307 309 310 310 310 311 311 312 312 313
307 308 309 309 309 310 311 311 310 310 311 312 313 313 313 314 315 317 316 312 311 314 314 313 313 312 312 313 313 313 311 312 312 310 310 312 311 311 312 311 310 312 314 315 315 318 321 319 316 317 316 313 312 314 315 315 315 315 315 315 314 313 313 313 314 314 314 313 314 314 312 313 315 314 313 313 309 307 309 311 311 310 310 311 312 312 312 312
Wind_Speed
38 41 36 30 34 39 41 42 45 45 43 41 40 40 40 38 36 38 40 42 42 40 38 35 33 34 33 32 34 32 30 31 31 33 35 34 31 28 25 23 19 18 15 14 15 13 10 7 8 6 5 4 4 6 5 5 4 4 3 2 2 3 4 5 7 7 4 5 10 13 14 12 8 10 14 12 14 16 13 10 11 10 8 10 8 16 33 34
37 40 40 34 31 36 40 42 45 46 44 42 41 42 42 40 37 38 40 41 41 40 39 37 33 32 30 29 31 30 30 31 31 33 37 36 34 30 27 26 24 23 18 12 12 15 17 15 11 6 8 9 5 5 5 5 6 4 3 2 4 4 5 4 6 10 8 10 14 16 16 16 14 15 18 10 8 14 11 8 9 10 12 12 14 24 34 35
36 36 40 38 31 33 38 40 42 44 44 42 42 44 43 42 39 37 40 40 41 40 38 37 35 32 29 27 28 27 28 28 28 33 38 38 37 33 30 28 27 27 24 17 12 13 17 15 10 8 12 12 6 5 5 4 5 5 3 2 6 6 5 4 6 13 14 18 19 16 16 16 17 19 17 11 9 10 9 10 11 13 17 18 23 29 35 38
34 31 36 40 35 32 35 38 41 43 44 42 42 43 42 42 40 37 38 39 40 40 38 37 36 33 30 27 25 24 23 19 23 35 38 38 38 35 34 31 29 30 28 23 16 11 13 14 10 8 12 10 8 7 6 6 5 4 4 4 6 4 4 5 6 11 14 22 25 18 14 13 17 17 16 17 11 3 11 19 17 17 23 26 29 31 35 38
32 29 32 39 38 35 34 37 40 42 44 43 43 43 43 42 40 38 37 37 40 40 38 37 36 34 31 28 24 22 20 8 17 35 36 36 39 36 36 35 32 32 32 29 23 15 12 15 13 7 9 6 7 6 6 10 8 2 5 9 6 2 3 5 5 9 12 20 22 17 12 13 16 13 17 21 9 6 15 20 17 18 23 26 29 32 35 38
31 32 32 36 40 38 36 37 39 41 44 43 43 44 43 41 40 39 38 36 38 40 39 36 36 34 31 29 24 22 20 6 5 25 33 34 36 36 35 35 34 34 34 31 27 21 14 14 14 7 7 5 6 5 7 11 10 4 5 9 7 5 4 4 5 10 16 20 18 16 14 17 15 8 17 23 10 8 15 17 15 15 19 23 27 31 34 37
31 34 33 35 40 40 37 37 41 44 44 42 42 44 43 42 41 39 39 37 37 39 40 38 35 33 31 29 25 23 24 14 1 8 25 32 32 34 34 33 33 34 34 32 28 23 17 13 11 8 7 5 6 8 11 11 10 7 4 6 6 6 8 6 7 13 19 20 17 17 16 18 15 8 14 21 12 7 12 16 16 16 20 23 25 29 31 34
31 33 33 34 37 38 36 36 41 45 45 43 42 43 43 41 41 40 39 38 36 37 38 38 35 33 32 29 27 22 24 26 10 3 10 24 29 30 32 33 32 32 32 32 29 25 20 13 11 10 5 6 8 8 11 10 7 7 6 6 4 5 9 8 8 14 17 16 17 17 16 15 14 11 11 15 12 9 12 16 18 20 23 24 24 26 27 30
31 32 33 33 35 37 37 37 40 43 43 43 42 42 41 40 41 40 38 37 36 35 36 37 35 34 31 30 28 19 23 33 26 11 5 13 26 29 30 32 34 33 31 31 30 26 23 17 14 13 6 9 12 11 12 7 4 9 11 8 5 4 8 8 8 15 16 15 18 14 9 9 10 10 8 12 13 12 13 16 20 23 25 26 24 23 24 26
31 32 34 35 35 37 38 38 40 42 42 41 41 42 41 40 40 41 39 37 36 35 35 35 34 34 31 30 25 13 21 32 32 29 17 10 19 28 30 30 33 34 31 32 34 32 28 21 16 13 9 12 11 14 13 6 5 10 14 9 4 5 6 7 8 13 14 14 17 12 5 5 9 7 5 12 16 14 14 17 23 25 26 27 25 23 23 23
30 32 35 36 37 39 40 40 41 43 41 39 40 41 42 40 41 42 40 37 36 35 35 34 34 35 32 31 24 13 20 29 30 34 29 18 14 22 31 30 30 32 32 33 36 37 32 23 16 11 8 8 9 14 13 12 11 9 11 6 1 3 3 6 7 11 11 8 12 12 6 2 4 3 7 15 19 16 16 19 24 27 26 27 25 24 23 22
31 33 35 37 38 40 41 41 42 43 41 40 40 42 43 42 41 42 41 39 36 34 34 34 33 34 32 29 26 21 21 23 26 31 33 27 16 16 27 31 29 29 31 33 36 37 32 22 16 13 11 7 8 9 10 13 13 10 12 5 1 2 1 7 7 9 9 4 11 13 6 2 2 6 9 16 21 19 19 22 26 28 27 27 25 24 23 22
31 33 34 37 38 38 41 42 43 43 42 41 41 43 44 43 42 42 43 40 36 34 33 34 33 33 31 23 22 25 21 19 22 25 30 30 21 17 24 29 29 27 26 31 36 34 27 19 16 18 20 12 8 10 14 16 9 9 9 5 1 2 2 8 6 7 6 5 11 11 2 5 7 12 10 16 24 23 22 24 27 28 28 28 26 24 24 23
30 34 34 37 37 40 43 43 45 45 43 42 42 43 43 43 43 42 43 40 35 33 31 32 32 32 29 17 18 26 21 19 21 22 26 29 25 21 23 28 29 27 25 28 34 31 22 17 16 19 21 16 16 19 17 11 5 5 3 2 4 3 4 6 5 6 6 5 8 7 3 5 8 12 10 18 26 25 25 26 27 29 28 28 26 24 24 24
29 33 35 37 39 43 45 44 45 46 44 43 43 43 43 43 44 44 42 38 35 32 32 32 30 30 25 12 15 25 22 22 24 22 24 26 27 26 26 29 29 29 27 27 29 26 20 16 14 14 17 18 18 16 9 4 3 2 4 3 2 5 4 5 5 9 6 4 6 5 2 5 7 8 10 21 27 25 26 26 27 29 28 28 26 24 24 23
29 33 36 38 41 43 45 45 46 46 44 42 43 43 43 43 45 44 39 37 34 32 33 32 30 29 18 9 13 23 26 27 25 24 24 25 27 29 30 30 28 27 26 24 24 21 18 14 11 14 17 15 10 7 5 3 3 2 3 4 3 6 4 2 4 9 6 4 3 3 3 3 4 4 9 21 27 24 23 25 27 29 28 28 26 25 24 23
30 33 37 39 41 43 45 46 47 47 44 43 43 42 42 42 42 39 36 36 34 33 33 29 31 25 10 7 13 22 32 31 27 28 27 24 20 23 30 30 25 24 22 20 19 18 18 12 8 11 13 10 5 5 6 6 6 3 1 3 4 5 5 3 3 6 6 4 4 3 3 5 5 3 10 19 23 22 21 23 27 29 29 28 26 26 25 25
32 34 39 42 43 45 48 48 48 47 44 44 43 42 43 40 38 37 38 40 37 34 27 24 28 17 6 14 18 23 33 31 29 31 28 22 15 18 26 26 23 23 19 15 14 17 17 10 7 7 7 7 6 5 7 7 5 5 4 4 2 2 5 5 3 5 6 3 4 5 3 8 7 5 9 17 19 20 23 24 25 27 28 28 28 28 27 27
34 34 41 44 44 48 50 50 49 47 46 44 42 45 48 46 42 40 44 44 37 24 12 24 32 10 3 20 24 21 29 31 28 28 30 25 17 18 21 21 25 27 20 11 9 17 19 8 8 8 8 8 8 7 7 7 7 7 6 5 5 4 4 5 4 4 6 4 4 7 7 9 8 6 9 16 17 18 22 21 21 23 25 27 28 29 29 29
36 36 44 45 45 49 49 51 51 49 49 46 48 50 43 39 26 22 36 41 36 19 7 30 37 5 5 22 27 21 25 30 27 27 32 28 23 23 22 22 23 21 16 9 7 17 18 8 9 10 9 8 7 7 8 7 6 7 6 5 6 6 5 5 3 4 2 5 6 7 7 7 8 8 9 14 14 15 18 18 20 22 24 26 27 28 29 30
38 39 47 47 49 51 50 54 52 51 52 52 59 51 39 37 19 20 37 30 30 23 10 30 30 4 11 27 31 30 29 24 24 31 33 30 29 24 22 23 16 9 10 11 9 14 13 9 11 10 8 7 7 8 8 6 4 5 5 6 6 6 5 3 2 4 1 3 4 2 4 7 9 9 8 9 9 13 21 22 23 25 25 26 27 28 28 27
40 44 51 49 51 55 56 56 54 54 54 58 62 47 46 50 30 39 46 19 14 14 13 33 24 8 21 30 29 32 31 21 21 35 35 32 31 22 19 19 9 6 10 11 8 9 10 11 12 10 8 8 7 8 9 7 5 4 3 6 5 5 3 1 2 5 3 2 4 1 5 9 9 7 8 10 11 16 25 26 26 27 27 28 29 29 27 26
45 51 55 52 55 59 60 59 56 57 58 63 59 42 49 45 27 44 44 18 9 8 17 33 15 13 28 28 28 29 27 23 23 35 36 31 29 23 22 16 8 10 11 11 10 9 9 10 13 11 8 8 7 8 8 6 4 3 3 5 4 4 4 1 3 3 3 1 1 3 4 6 6 4 7 15 18 18 23 27 27 28 28 29 29 29 28 27
51 57 58 57 59 60 61 59 59 62 64 63 50 39 46 33 26 47 38 15 5 5 18 27 8 15 29 26 30 30 26 24 26 36 38 33 28 24 22 17 13 11 12 16 14 10 7 8 12 12 7 9 9 8 9 6 4 4 4 5 4 5 5 2 3 2 2 2 2 5 2 5 5 4 7 12 13 15 19 22 25 29 29 28 28 29 30 29
58 61 60 62 63 62 61 60 64 68 65 57 42 37 39 26 30 50 31 11 3 4 14 22 7 13 27 26 28 27 21 20 25 36 38 34 31 23 17 18 16 11 13 19 14 9 10 14 13 12 8 9 9 9 9 8 5 5 5 7 8 9 7 4 7 6 3 2 3 3 1 5 4 5 9 6 4 9 13 15 23 29 29 28 27 29 30 29
63 64 63 66 66 63 60 59 65 66 58 50 42 39 35 29 37 44 23 7 1 3 9 18 9 13 26 23 23 22 12 11 21 32 35 31 32 26 16 14 12 10 15 16 9 5 8 14 9 10 12 10 8 9 8 8 7 4 6 8 9 9 8 8 9 6 3 4 4 2 4 5 5 4 8 5 4 9 8 9 19 26 28 29 29 28 28 29
66 66 66 69 67 66 62 56 60 63 54 45 43 41 34 33 40 35 14 4 3 4 6 10 8 17 27 21 25 20 5 12 20 27 35 30 28 26 15 10 9 11 15 12 7 4 8 11 6 8 11 9 8 8 7 9 8 4 5 6 9 9 10 11 10 6 3 3 2 4 4 3 4 6 6 2 5 8 8 9 15 22 27 28 28 28 28 29
69 68 68 71 70 71 65 59 61 61 55 47 45 43 35 36 40 25 7 2 5 6 7 7 6 19 26 22 25 12 4 19 17 20 37 31 25 23 12 10 12 12 16 12 6 3 6 10 7 8 8 7 9 7 7 11 6 5 4 5 7 9 10 10 9 4 2 3 2 3 3 3 5 6 5 1 2 6 9 11 13 20 25 26 27 27 27 28
69 70 71 72 71 69 63 61 63 55 49 48 45 41 39 41 34 13 1 4 5 5 11 12 10 17 22 19 17 5 6 19 11 16 34 27 22 17 9 14 16 13 15 12 5 2 4 7 5 6 6 6 7 5 8 11 5 4 6 7 5 5 5 5 6 5 3 2 6 6 4 3 5 5 3 1 2 6 9 10 12 18 23 25 28 27 25 25
69 71 71 72 70 64 56 54 54 47 47 50 45 43 45 37 21 7 5 5 4 5 11 12 12 18 21 15 9 4 4 10 11 21 26 20 20 14 10 20 19 12 11 9 6 4 2 2 2 3 4 4 5 3 4 8 8 10 9 7 7 6 5 3 3 4 3 3 7 6 4 3 3 5 4 4 4 7 7 6 8 14 21 26 27 27 26 26
71 71 71 72 69 62 55 48 44 47 52 51 45 45 38 18 6 5 8 8 6 5 8 9 10 17 21 15 9 9 5 3 13 22 17 11 13 11 10 15 12 9 8 7 7 5 3 1 2 3 4 3 4 3 1 4 10 11 6 5 5 3 4 3 4 2 3 5 6 4 2 3 4 5 4 5 6 6 7 7 7 11 20 26 27 26 26 25
72 73 73 72 65 60 59 50 45 52 55 52 49 43 24 6 2 3 6 10 8 6 8 11 11 15 19 14 9 11 8 4 13 18 13 8 7 8 9 8 8 8 8 10 8 4 3 2 2 3 4 4 4 3 3 2 6 6 5 7 6 1 1 1 2 1 4 5 3 2 1 2 5 7 7 8 9 8 8 9 9 12 20 26 27 26 25 24
71 75 75 69 59 55 56 51 51 56 56 54 49 31 11 5 7 6 7 8 7 9 12 15 16 17 21 15 9 11 7 6 14 16 13 10 6 8 8 6 9 7 5 9 8 5 4 4 3 2 3 5 5 4 4 4 5 6 8 8 6 4 4 5 4 1 3 4 2 1 1 2 4 5 8 10 10 10 11 13 12 13 19 24 27 26 23 23
71 74 70 62 56 54 54 54 55 56 58 55 39 17 6 7 6 8 10 8 7 13 13 15 18 19 19 14 11 14 9 6 13 14 11 8 6 9 8 8 12 6 5 8 7 7 7 3 4 4 1 1 2 3 4 6 5 4 4 7 6 5 5 5 4 3 3 2 2 2 1 4 4 3 6 8 9 9 11 13 12 11 15 20 24 24 22 22
72 69 62 54 52 52 53 58 57 55 59 49 23 8 8 7 5 7 10 7 8 12 13 15 18 17 14 8 7 11 7 5 11 12 11 10 9 11 10 9 12 8 7 8 5 6 8 4 2 2 1 0 1 3 1 7 6 3 2 6 5 5 5 3 3 5 5 1 1 2 3 4 4 5 6 5 7 6 5 7 7 8 12 17 22 23 22 22
67 58 53 51 51 52 54 59 58 58 57 37 12 9 10 6 6 8 10 12 14 17 17 15 13 12 11 5 3 8 4 4 10 8 8 9 8 11 10 9 12 12 10 8 3 5 8 3 3 3 1 1 0 3 2 2 5 2 3 4 5 4 7 6 2 1 4 2 2 2 3 4 3 5 6 5 5 6 3 3 5 9 13 18 22 22 22 21
57 47 47 49 52 55 58 61 60 59 49 23 9 12 7 3 5 6 10 17 22 24 21 15 10 11 12 7 7 10 4 4 9 7 7 7 6 10 11 8 13 16 12 8 3 3 5 2 3 1 1 1 3 3 3 2 3 4 3 5 3 3 5 5 2 2 3 2 4 1 3 4 1 3 6 6 6 8 5 3 4 8 13 18 21 21 21 20
52 45 42 46 54 58 60 61 60 54 37 14 10 9 2 1 2 5 13 18 21 22 17 12 10 10 13 12 11 14 10 8 10 8 9 8 5 11 14 8 10 15 15 12 5 3 5 2 2 1 2 3 5 2 1 3 3 3 4 4 4 3 2 2 3 2 2 3 4 3 3 3 3 5 4 4 9 10 7 5 5 8 15 20 22 22 21 20
52 40 30 41 55 57 59 60 55 43 23 10 11 8 2 2 2 11 23 22 19 19 14 12 12 9 12 14 14 16 13 11 13 9 8 8 5 9 16 10 7 14 18 15 6 3 5 4 2 2 1 2 4 2 3 2 2 3 2 3 2 3 5 3 3 4 4 4 3 2 1 3 5 6 6 9 12 10 8 7 8 13 19 23 24 24 23 23
49 28 17 42 56 54 60 57 43 28 13 9 10 5 2 2 4 19 35 29 16 10 10 13 15 12 11 11 12 13 10 8 14 10 5 8 4 5 12 11 7 10 14 15 9 3 4 4 2 2 3 0 1 1 4 5 2 2 2 3 2 1 2 2 1 3 4 4 3 2 1 5 6 5 8 11 10 8 10 9 10 15 22 25 26 25 25 24
41 17 16 48 55 52 57 41 21 14 7 8 7 3 3 4 7 18 32 32 16 4 7 14 15 14 13 12 10 11 7 5 11 9 3 8 7 3 10 13 11 10 8 9 9 4 2 3 4 2 0 2 3 3 2 3 2 2 3 5 5 3 4 3 3 1 2 3 4 4 2 7 6 4 7 9 5 4 8 10 11 16 23 26 26 25 25 24
28 10 24 53 53 53 48 20 8 10 5 9 7 4 4 7 10 15 20 23 13 3 7 11 10 11 12 12 12 11 9 6 10 10 3 7 9 4 10 18 20 19 11 6 6 4 3 4 4 2 3 4 5 4 2 3 2 1 3 4 4 3 5 6 6 3 2 2 2 4 2 6 6 4 5 7 6 6 8 12 15 18 23 26 26 25 24 23
20 16 36 56 54 55 39 9 7 9 3 9 7 6 5 6 10 14 12 12 7 4 7 6 8 11 8 9 11 11 10 7 8 9 4 5 7 4 13 24 24 19 11 5 5 5 4 4 4 1 2 2 4 5 2 0 0 1 4 2 3 2 3 5 5 4 4 4 3 3 2 6 6 3 4 8 9 10 11 13 18 19 20 24 26 25 24 23
28 29 39 50 53 50 28 5 10 12 7 11 8 6 5 5 10 15 13 9 6 6 9 6 9 12 8 10 13 14 14 7 5 7 4 5 7 5 15 28 25 16 11 8 9 9 5 2 4 4 1 1 2 3 3 3 3 3 3 1 2 3 6 4 2 3 2 4 5 5 4 7 6 4 4 6 7 9 11 13 16 18 18 22 25 25 25 24
29 23 25 39 47 42 18 1 8 13 11 13 11 7 5 3 7 15 15 9 3 6 8 6 9 10 8 11 11 12 14 7 5 7 3 4 5 2 12 28 27 19 15 15 17 14 6 3 5 6 6 8 7 6 6 4 3 1 1 1 3 5 7 4 2 4 3 4 5 6 5 6 7 6 6 6 5 6 7 8 13 17 17 20 23 25 26 25
19 10 11 20 29 30 12 2 7 12 10 11 9 6 7 6 4 10 14 8 2 6 7 4 9 10 8 11 10 10 11 4 3 7 5 6 5 1 9 23 23 19 17 20 25 17 4 2 7 9 11 11 8 5 5 7 5 4 5 5 6 7 7 5 3 3 5 3 3 6 6 6 8 7 6 7 5 6 6 6 13 17 18 20 22 25 27 27
13 10 11 10 13 17 7 1 8 12 10 9 5 4 9 11 5 4 6 3 5 11 6 3 10 11 10 15 12 10 11 4 5 9 8 7 3 1 6 13 14 15 16 19 24 15 3 3 9 10 11 9 7 9 10 11 12 12 12 11 10 9 8 7 7 8 6 5 5 9 7 8 9 7 6 8 6 5 7 10 15 17 18 20 22 24 26 27
7 9 12 8 7 11 10 9 13 13 11 8 4 4 9 13 11 8 3 1 6 10 6 4 12 16 18 19 13 10 10 6 6 9 7 6 4 3 5 4 5 11 12 14 17 10 3 6 8 7 5 2 4 9 10 12 13 14 16 17 14 11 11 11 13 10 7 7 11 11 9 9 9 6 8 10 9 9 11 12 13 14 16 20 22 24 27 27
7 7 7 4 3 7 12 16 18 16 12 7 3 5 11 15 13 7 3 4 6 6 5 9 14 17 20 18 13 12 12 10 10 10 8 9 8 6 6 3 2 5 7 8 8 4 3 5 5 6 5 3 2 4 8 10 9 8 12 14 13 13 14 15 15 13 10 10 12 8 6 8 8 8 9 9 8 9 8 7 9 12 16 20 22 25 27 28
7 7 5 6 6 8 12 14 14 14 9 5 3 5 9 14 13 5 1 6 10 6 5 13 17 16 17 17 14 14 18 19 17 14 12 11 8 7 7 5 4 3 4 5 4 1 2 3 2 5 6 2 5 1 4 7 6 6 8 9 10 12 14 15 16 12 9 9 11 6 6 9 8 8 12 12 8 4 5 8 13 16 18 21 24 26 28 29
10 8 10 10 6 7 12 9 8 10 7 4 4 5 7 11 12 7 3 2 7 8 6 12 16 13 12 15 16 15 17 16 15 18 20 18 15 10 5 6 9 8 5 4 3 2 3 2 2 5 5 2 4 3 3 3 2 3 7 8 11 13 12 12 11 8 8 10 11 9 9 10 5 6 10 12 7 7 10 15 18 18 19 22 25 27 28 29
15 14 17 14 5 4 10 7 7 10 6 4 3 3 5 8 8 9 6 5 5 7 12 17 16 10 10 13 15 14 15 14 16 21 20 17 16 11 6 11 16 12 8 5 3 3 5 5 3 4 5 3 4 1 4 6 3 5 9 11 15 14 11 9 8 8 11 11 10 10 10 7 5 6 8 6 6 9 15 20 21 20 21 24 25 26 27 28
Wind_Direction
218 225 233 227 215 215 210 203 202 198 197 198 196 196 195 196 197 198 200 201 202 201 200 199 200 201 202 204 205 208 211 212 214 216 219 215 209 210 212 211 203 197 201 204 207 208 210 254 306 331 316 301 314 298 255 223 200 169 133 124 214 196 201 193 177 190 172 173 184 182 166 141 143 145 141 143 140 134 138 147 151 172 172 172 190 161 160 165
213 217 225 230 222 216 211 207 206 201 197 197 197 196 194 194 196 197 199 202 203 202 202 201 200 200 202 203 204 207 211 213 218 223 222 218 215 215 217 218 213 205 207 214 217 226 231 247 279 318 334 324 321 304 279 231 205 185 118 148 213 204 205 207 196 195 176 173 177 179 171 154 154 151 147 144 134 134 126 124 142 155 157 167 171 158 159 165
212 211 214 226 229 219 214 209 206 202 198 197 197 196 193 193 194 195 198 201 202 202 203 203 201 200 200 202 203 204 208 212 221 226 222 220 220 218 219 219 216 212 211 218 219 228 235 244 266 301 329 323 304 293 283 236 211 211 143 166 230 222 219 257 234 211 196 175 168 173 175 163 158 156 156 154 145 149 150 150 151 152 155 161 163 159 161 166
215 211 209 220 230 223 215 210 205 200 196 196 196 195 194 193 193 194 197 199 202 202 202 203 202 200 199 197 199 200 201 208 225 226 221 222 223 222 223 222 220 217 213 219 225 224 232 241 247 292 323 317 301 294 267 234 217 208 172 193 231 213 221 258 242 226 209 176 167 167 167 167 163 161 163 150 135 205 194 179 178 171 162 161 163 163 165 169
217 213 208 215 226 227 217 210 205 197 194 194 194 195 195 194 194 194 196 198 201 202 201 202 202 201 199 195 194 194 189 192 231 226 222 223 225 227 228 227 227 223 216 219 226 220 223 238 236 285 319 296 299 296 251 233 217 215 216 225 240 186 215 249 229 219 200 173 164 157 158 170 164 164 171 159 151 225 203 192 190 184 173 167 166 166 169 174
218 214 209 210 219 226 220 209 205 198 193 193 193 194 194 194 193 192 194 197 199 201 201 202 202 200 198 196 195 193 189 177 239 224 224 223 223 227 228 229 229 225 221 219 225 225 223 232 230 275 315 291 294 266 252 243 215 228 254 236 235 215 225 230 202 190 178 168 162 162 166 165 157 165 179 176 187 211 201 195 188 189 182 173 168 168 173 177
219 215 211 208 211 220 218 208 205 198 191 190 191 192 193 193 193 191 192 195 197 198 200 202 201 200 197 195 196 198 200 200 119 212 221 222 223 226 225 227 226 220 217 218 222 221 222 225 215 251 300 294 288 260 260 260 223 222 261 243 228 225 227 210 187 177 174 172 168 165 162 161 162 164 179 190 211 214 199 194 187 185 178 174 172 174 177 181
218 217 213 209 208 213 214 208 204 199 191 188 188 190 192 193 193 191 191 194 195 196 198 200 200 198 196 193 191 195 207 209 196 104 206 212 216 221 222 221 220 215 212 216 220 216 219 222 209 228 277 266 262 274 268 267 242 223 239 240 209 212 210 198 195 182 177 172 163 157 156 164 170 161 174 195 202 192 191 192 187 181 177 178 179 180 182 185
218 218 214 210 207 208 212 210 204 199 194 189 187 189 190 191 192 190 191 192 193 194 196 198 199 198 196 194 188 191 214 213 210 211 202 200 204 211 218 218 215 214 212 214 219 218 215 215 215 218 249 278 273 284 274 258 241 221 224 231 194 192 191 177 183 179 177 170 159 152 149 160 163 159 175 184 174 169 181 189 186 182 181 182 184 185 185 188
216 217 214 210 207 207 211 211 204 197 194 190 188 189 190 190 191 190 191 192 191 192 193 195 197 196 194 192 186 192 218 215 215 219 224 221 204 204 211 216 214 212 212 212 216 221 218 215 217 216 249 287 283 278 269 237 249 235 220 224 188 177 185 173 170 168 169 169 167 156 135 153 155 160 195 184 173 170 175 182 185 185 185 186 188 188 188 191
214 216 213 208 207 206 207 209 204 196 192 190 188 189 190 189 191 190 190 192 191 190 190 191 193 194 194 192 188 196 215 216 219 219 223 232 222 209 209 211 212 208 209 209 211 220 222 219 221 223 248 277 287 286 267 237 259 254 201 191 163 154 184 194 176 168 160 165 181 154 111 119 142 182 215 187 179 179 179 177 182 187 188 188 189 190 192 194
213 214 212 209 208 205 203 205 203 195 190 188 188 189 189 190 191 190 191 192 190 188 187 188 189 192 191 192 197 204 211 217 221 220 223 230 234 226 214 210 210 209 210 209 208 216 223 223 223 231 241 262 305 303 278 261 264 236 187 161 341 28 278 216 187 180 169 159 176 144 102 318 228 226 213 187 182 180 183 179 181 188 191 190 191 193 195 196
214 213 212 210 209 204 202 202 199 195 190 188 189 188 188 190 190 189 189 187 183 182 182 184 187 189 188 188 199 206 209 215 220 220 222 227 230 226 215 210 209 211 215 213 211 216 223 226 224 236 247 263 290 280 288 291 262 210 187 148 133 32 300 220 191 190 175 159 170 150 167 264 242 231 207 182 183 179 181 183 184 189 192 192 193 196 199 199
216 214 211 210 209 205 205 203 198 194 189 188 189 188 188 189 188 189 187 179 175 176 176 180 182 185 187 185 195 201 204 211 216 217 218 222 222 215 209 206 207 210 214 212 213 218 225 227 227 243 257 263 268 273 289 290 222 169 157 148 160 161 259 238 195 181 159 175 183 149 191 251 246 240 215 186 185 183 183 186 189 192 194 195 196 199 203 203
219 215 210 210 209 206 205 201 197 194 189 189 188 186 188 186 184 187 184 173 170 170 170 174 179 181 181 183 196 195 196 205 209 210 214 220 219 215 208 202 203 205 206 205 210 217 216 212 218 245 266 266 262 267 287 291 229 156 159 207 206 175 243 280 212 190 164 185 195 141 179 262 264 247 214 190 186 186 188 189 193 195 197 197 199 201 205 208
221 215 210 210 210 208 202 195 195 193 189 188 186 186 186 178 175 179 176 167 164 167 165 166 175 176 172 184 193 190 194 198 199 199 204 210 214 215 205 196 195 196 195 196 201 203 194 194 221 249 260 261 252 234 250 283 253 235 170 181 199 179 206 288 228 213 187 156 190 169 179 245 280 246 189 185 188 191 193 195 197 200 202 202 202 204 206 210
221 215 210 207 209 208 197 193 194 191 188 187 184 185 181 170 166 169 166 163 163 166 166 165 172 173 171 190 183 188 194 191 187 189 191 191 195 201 196 188 184 184 180 175 181 185 182 189 233 252 248 243 228 191 215 236 216 227 118 143 199 183 173 193 246 228 196 165 198 196 191 226 269 258 177 182 191 197 202 204 204 205 207 207 208 209 211 213
219 216 210 204 208 206 195 193 193 189 188 185 183 182 176 168 165 165 161 159 157 157 162 164 166 170 208 202 188 192 195 189 184 187 182 170 169 185 183 178 170 164 154 150 169 178 177 201 247 250 237 224 221 193 199 220 196 178 155 144 171 160 174 192 216 205 172 167 200 174 224 247 263 279 197 188 193 203 212 215 213 212 211 212 213 214 216 218
218 217 209 203 205 200 193 193 191 189 186 182 179 172 164 159 159 161 158 156 152 147 157 167 167 168 235 195 189 192 195 190 187 191 184 167 164 176 166 161 158 148 139 138 164 167 165 202 247 231 225 220 217 196 197 207 174 169 168 147 152 165 211 215 232 232 166 153 200 188 213 236 245 265 218 198 200 209 219 223 222 219 216 215 215 218 220 222
220 217 207 202 199 194 192 192 189 186 182 178 168 157 150 147 142 147 154 157 159 157 172 171 173 168 86 169 178 175 181 187 188 185 180 170 162 162 153 147 144 136 138 137 154 169 170 207 236 220 220 217 212 195 193 198 171 166 151 139 164 173 213 229 253 283 160 156 215 207 212 237 239 249 230 207 209 217 225 231 230 226 222 219 218 220 223 227
222 215 205 200 196 194 194 191 187 182 180 177 167 158 154 151 145 160 158 159 167 168 175 169 172 167 133 160 171 167 162 171 185 175 167 167 161 153 151 148 137 128 143 135 149 180 190 226 231 222 216 197 200 198 200 201 160 155 150 152 178 185 209 233 246 302 18 167 237 208 206 251 244 242 247 215 203 221 224 226 230 229 226 225 222 222 225 230
223 211 202 198 196 196 193 189 186 182 179 175 170 167 165 161 164 169 156 135 146 153 170 170 167 148 149 155 161 164 156 150 174 174 166 167 165 156 153 154 144 134 140 139 155 189 213 236 228 218 204 188 197 201 206 208 178 172 153 145 173 197 206 308 310 328 18 186 254 185 192 244 251 248 259 234 213 223 226 226 228 226 224 225 223 223 225 228
218 204 197 196 195 193 190 187 184 181 177 172 170 170 170 168 171 165 147 105 95 103 162 169 154 133 148 151 155 156 154 153 166 172 171 170 167 162 157 155 149 143 152 170 179 188 205 228 225 214 198 190 204 210 209 212 200 193 151 150 186 193 168 190 269 323 31 124 199 154 186 260 276 283 271 246 233 232 235 234 233 228 223 223 222 223 224 224
206 196 194 193 191 189 188 185 179 178 177 173 169 169 172 173 170 160 139 90 83 80 162 168 131 139 150 148 156 153 154 166 170 171 173 171 165 162 159 155 153 156 174 182 189 203 217 243 223 205 202 197 200 217 211 195 221 241 185 171 181 182 186 182 158 123 26 355 99 110 49 306 273 251 259 250 237 236 239 236 236 232 226 225 226 225 226 225
197 192 192 190 189 187 185 180 175 175 174 172 171 172 174 170 161 159 139 75 77 81 164 173 142 152 156 148 157 156 155 174 178 174 174 172 165 158 158 161 161 171 179 180 193 208 232 252 222 193 207 204 197 215 208 181 204 260 223 197 187 184 185 142 123 109 82 276 265 111 96 292 287 247 245 248 226 233 236 231 233 233 226 225 228 227 226 225
192 189 189 189 188 184 178 174 173 172 169 170 174 174 171 158 154 158 141 67 157 116 166 176 164 160 160 153 155 151 145 174 182 179 174 172 171 161 155 165 170 180 170 175 202 199 224 244 223 193 202 198 203 219 206 174 172 236 238 205 188 176 159 142 142 132 136 218 273 94 165 255 311 277 252 253 237 243 247 238 237 234 228 225 227 227 225 222
189 186 186 188 187 182 175 170 169 169 168 172 175 172 163 150 153 156 138 60 185 147 149 176 176 166 163 157 154 147 134 165 171 182 177 171 173 169 164 166 164 175 166 169 204 192 205 224 226 209 200 192 204 216 205 169 158 223 240 175 164 163 160 160 157 157 176 187 328 26 138 223 281 265 270 263 229 254 263 251 244 237 230 227 226 227 225 223
185 184 184 185 186 184 179 172 168 169 173 172 169 166 156 151 158 157 136 152 160 133 148 167 158 159 159 156 158 147 119 159 161 185 180 173 172 174 180 176 161 168 171 175 196 175 190 212 223 209 201 202 204 209 186 161 159 229 208 137 155 162 161 164 157 148 109 134 250 291 154 192 262 270 306 6 199 256 250 237 238 233 228 226 225 225 225 224
183 182 182 183 183 182 181 176 171 170 173 170 164 161 156 157 161 153 150 186 137 128 155 150 138 149 149 149 163 156 131 163 169 178 179 180 180 181 187 175 162 162 178 186 199 201 199 215 224 197 203 214 207 207 174 166 180 186 131 90 80 82 95 125 136 123 89 151 223 232 185 191 263 277 311 29 212 245 240 236 234 228 224 221 221 220 217 217
181 181 181 179 177 177 178 173 169 168 169 166 162 161 159 157 155 153 204 187 118 140 154 148 152 153 145 140 161 195 165 169 158 161 178 191 190 192 179 167 160 154 177 196 211 244 269 222 238 208 226 222 184 175 181 183 162 130 108 79 70 49 46 58 64 94 114 236 243 235 202 172 259 273 239 202 222 218 217 243 239 224 221 218 216 215 214 213
181 181 180 177 174 174 171 162 163 168 167 162 159 159 156 148 146 177 179 153 119 137 143 143 152 147 147 148 157 181 201 177 150 158 178 195 191 195 171 162 156 143 165 193 214 263 325 178 227 252 258 239 143 108 30 189 154 124 107 110 99 25 21 35 359 56 168 240 259 255 222 158 218 259 239 236 259 231 204 223 225 215 217 216 213 213 215 216
180 181 180 178 174 173 170 160 161 168 165 162 159 156 148 131 227 193 156 146 146 170 158 148 152 147 151 151 153 175 188 180 166 167 176 182 186 195 183 174 162 149 172 187 189 220 251 244 276 307 270 223 169 119 69 165 168 131 127 139 129 61 54 165 251 233 212 239 268 256 190 192 231 251 255 259 265 252 232 233 233 223 217 215 212 211 213 217
179 177 176 176 171 169 168 160 158 162 163 161 157 152 146 175 184 156 150 164 167 172 162 151 154 154 151 149 157 179 187 188 177 172 176 176 176 198 211 203 174 155 164 170 165 186 221 282 288 283 268 224 192 177 159 181 192 158 149 155 153 136 150 199 228 275 237 243 284 274 210 251 267 267 252 249 256 261 263 264 263 248 231 220 210 207 211 217
176 173 169 169 168 167 164 158 158 162 161 158 154 151 173 189 173 146 158 175 157 155 156 149 149 151 155 157 163 172 178 190 178 167 168 175 176 197 216 208 187 154 111 153 169 184 190 228 222 186 212 232 205 218 184 151 162 190 155 140 153 158 163 194 206 188 205 236 293 291 215 190 203 249 247 253 276 280 271 270 270 256 238 220 205 201 208 216
172 169 164 163 166 168 164 158 160 163 159 154 150 160 179 179 173 161 162 157 139 143 144 142 142 146 160 160 156 176 181 176 174 167 171 184 187 190 194 196 188 162 137 165 178 182 189 223 271 242 286 328 211 270 209 133 155 230 120 124 167 178 147 143 181 176 165 153 272 237 229 207 207 267 280 283 299 296 269 261 247 225 214 201 196 200 207 215
164 161 159 160 162 165 163 157 159 162 158 151 149 175 185 197 184 172 163 153 149 145 136 138 144 148 157 143 154 201 223 163 167 170 180 194 202 195 192 190 184 175 164 162 156 173 182 205 326 334 324 27 289 281 296 167 181 167 121 174 213 155 116 117 163 107 99 148 240 210 241 292 305 289 311 339 314 298 302 272 211 193 189 188 193 201 207 213
157 153 153 155 156 161 164 161 159 161 158 153 171 178 183 231 190 167 157 149 148 146 140 146 160 157 155 151 173 196 204 145 168 177 178 189 210 200 198 197 186 183 174 153 158 193 162 154 331 17 149 303 334 316 326 4 125 127 157 197 189 107 93 110 140 19 56 191 266 243 211 271 280 252 318 338 288 271 270 260 218 192 188 191 196 201 206 211
154 149 147 151 155 161 164 162 159 159 158 161 191 188 164 260 200 152 148 144 143 146 145 151 161 162 163 161 173 186 177 163 178 186 177 185 216 195 189 194 188 186 174 152 157 206 151 143 303 2 188 291 346 17 248 3 54 131 169 160 126 138 175 124 146 164 158 210 276 299 238 242 198 215 283 270 240 244 239 233 229 210 201 200 200 202 204 208
147 143 141 149 156 161 163 163 160 157 158 171 188 197 172 177 202 151 149 146 144 149 152 155 156 162 171 167 167 177 179 174 176 180 182 190 225 202 185 182 180 182 176 163 167 213 152 143 262 303 306 309 358 45 189 231 359 36 89 125 98 137 172 175 154 161 176 203 242 291 289 254 227 215 217 224 227 223 212 213 220 215 209 204 204 204 206 208
143 137 134 151 157 162 162 161 158 156 168 183 178 203 206 164 173 157 155 152 148 155 161 159 156 154 165 167 163 171 178 172 173 180 194 184 197 224 194 181 169 173 172 169 176 186 148 146 195 302 343 344 200 234 195 194 186 77 111 177 193 63 120 154 135 127 138 165 191 192 244 261 249 207 202 222 228 211 204 210 218 217 211 209 209 210 211 211
142 129 137 155 161 164 158 153 156 164 180 175 169 260 246 153 151 160 160 156 150 142 150 157 161 155 155 160 162 170 164 144 171 180 188 178 178 217 199 179 157 152 156 171 183 180 163 163 157 161 301 187 231 267 223 211 215 164 184 192 182 138 113 152 232 242 120 150 172 161 214 267 257 201 208 227 229 214 217 217 223 222 215 212 213 214 216 216
138 119 148 158 165 165 157 149 171 172 165 170 186 260 193 150 149 162 166 160 149 93 126 147 157 151 154 162 161 168 159 143 177 180 170 186 179 180 190 173 159 161 162 166 181 157 111 113 117 147 209 210 250 272 201 216 276 249 221 196 170 154 131 159 209 223 153 155 142 128 167 273 261 213 215 240 256 263 242 223 224 228 221 217 215 215 217 217
122 116 146 158 166 166 161 155 166 161 169 184 213 268 197 159 154 160 168 168 154 113 130 140 151 153 162 162 152 160 163 155 178 174 144 178 186 188 182 170 161 164 167 158 172 160 123 107 107 88 311 313 309 320 347 186 260 245 242 187 153 185 148 155 186 177 163 177 150 128 215 269 275 259 243 258 270 274 258 228 222 226 224 218 216 214 214 214
116 119 141 159 168 169 166 170 168 166 176 183 213 254 200 160 159 164 168 172 162 139 143 152 161 161 164 160 158 167 169 162 179 179 149 163 186 198 180 172 167 169 179 182 175 168 158 144 130 129 106 14 323 298 277 230 185 200 244 221 137 119 104 115 140 109 159 202 163 158 220 252 274 314 301 285 290 280 260 232 221 222 220 215 213 212 212 211
121 120 137 155 167 172 174 201 169 167 168 179 201 217 182 147 168 171 166 164 150 130 137 148 151 141 136 148 153 165 170 164 164 174 149 143 174 213 182 179 177 177 184 177 162 156 155 164 149 146 171 189 198 207 207 196 177 201 242 189 167 139 138 167 148 115 207 231 160 168 216 250 277 313 315 304 305 282 263 227 215 219 219 215 211 209 210 210
131 125 131 145 165 178 183 65 143 161 169 178 195 205 166 146 160 165 158 159 138 117 112 119 126 111 121 142 139 161 177 159 118 156 155 154 170 294 187 185 186 183 179 166 157 151 127 179 178 182 195 196 188 177 152 132 142 210 215 187 191 192 177 161 124 160 199 177 179 215 207 221 257 277 285 282 272 263 264 223 208 212 214 214 210 208 209 210
138 146 149 141 159 177 185 94 152 167 177 180 193 204 163 150 145 149 148 165 159 134 99 95 139 136 152 154 147 166 171 121 110 152 155 154 157 29 168 180 185 178 169 163 160 150 103 207 194 196 207 199 173 173 167 157 173 199 203 197 201 199 178 166 193 211 177 145 235 243 199 202 236 235 237 256 250 241 254 234 215 211 209 209 207 205 207 209
132 152 163 153 154 176 183 179 174 173 178 183 184 173 158 154 156 160 148 65 147 143 109 130 164 163 164 162 156 161 158 129 142 161 155 148 139 111 139 158 172 169 163 165 168 155 140 198 194 188 198 179 164 183 180 177 187 195 197 201 200 187 177 190 213 213 161 171 234 231 189 203 232 224 221 231 221 218 232 230 219 212 208 205 204 204 206 209
109 124 152 139 129 162 153 153 162 169 178 186 172 167 166 162 160 160 132 114 147 166 147 159 175 172 165 164 155 155 164 161 167 177 166 155 152 141 142 150 169 169 158 160 172 172 172 188 180 160 153 61 15 208 191 187 192 195 202 204 194 186 189 198 214 214 188 206 237 234 211 229 232 220 226 240 241 233 234 233 221 213 208 205 203 206 209 212
119 125 138 118 99 109 111 124 151 166 183 190 174 187 174 162 158 148 83 145 161 183 171 163 172 170 164 166 162 173 185 177 173 177 160 149 162 167 165 172 161 135 126 142 163 165 156 181 152 119 130 40 356 346 194 194 191 197 210 205 189 194 202 208 217 216 202 227 251 260 267 264 242 215 229 250 257 219 201 221 224 220 213 206 204 209 214 218
120 120 130 125 105 114 119 120 146 163 189 200 181 195 173 164 162 141 50 38 147 160 164 155 158 157 160 172 179 186 187 175 166 168 161 157 165 168 172 175 159 145 134 145 156 118 104 127 84 97 141 225 345 30 153 141 108 232 238 214 194 198 206 212 218 205 191 219 240 244 252 257 232 193 222 236 221 188 208 227 227 223 216 210 209 214 219 224
118 121 131 124 84 103 127 125 148 165 191 198 167 181 163 164 167 144 114 22 48 126 145 143 143 147 161 183 193 187 173 163 156 160 161 157 153 145 133 151 156 152 146 145 138 127 130 128 117 131 163 222 319 331 141 110 97 257 246 209 196 202 205 208 225 222 208 207 214 225 235 231 187 187 213 215 187 202 229 235 233 227 219 216 219 222 227 231